Regional Weather Roundup
Issued by NWS

Home | Current Version | Previous Version | Graphics & Text | Print | Product List | Glossary On
Versions: 1 2 3 4 5 6 7 8 9 10 11 12 13 14 15 16 17 18 19 20 21 22 23 24 25 26 27 28 29 30 31 32 33 34 35 36 37 38 39 40 41 42 43 44 45 46 47 48 49 50
000
ASUS43 KOAX 271110
RWRNE

WEATHER ROUNDUP FOR NEBRASKA
NATIONAL WEATHER SERVICE OMAHA NE
600 AM CDT SAT AUG 27 2016

NOTES: SATELLITE DATA IS BEING USED TO AUGMENT CLOUD COVER ABOVE
       12000 FEET.
       "FAIR" INDICATES FEW OR NO CLOUDS BELOW 12,000 FEET WITH NO
       SIGNIFICANT WEATHER AND/OR OBSTRUCTIONS TO VISIBILITY.

  * THESE STATIONS DO NOT REPORT WEATHER SUCH AS RAIN...SNOW OR FOG.

NEZ001>004-019>022-054>056-271200-
NEBRASKA PANHANDLE

CITY           SKY/WX    TMP DP  RH WIND       PRES   REMARKS
SCOTTSBLUFF    FOG       54  53  97 SE9       30.05S VSB 1/4
ALLIANCE       FOG       54  54 100 S9        30.05S VSB 3/4
CHADRON        CLEAR     50  49  96 CALM      30.01F
KIMBALL        CLOUDY    51  51 100 CALM      30.08S
SIDNEY         FOG       51  50  96 E6        30.08S VSB 1/4
$$

NEZ057>060-069>072-079>082-271200-
SOUTHWEST NEBRASKA

CITY           SKY/WX    TMP DP  RH WIND       PRES   REMARKS
NORTH PLATTE   FOG       54  52  93 CALM      30.05F VSB 1/4
IMPERIAL       FOG       49  48  97 N9        30.08R VSB 3/4
LEXINGTON      CLEAR     54  52  95 W5        30.05R FOG
MCCOOK         PTCLDY    50  50 100 SW3       30.06R FOG
OGALLALA       CLOUDY    57  55  92 SE3       30.07S FOG
$$

NEZ005>010-023>029-035>040-094-271200-
NORTH CENTRAL NEBRASKA

CITY           SKY/WX    TMP DP  RH WIND       PRES   REMARKS
VALENTINE      CLOUDY    55  53  93 SW7       30.03R
AINSWORTH      FOG       58  58 100 CALM      30.02R VSB 3/4
BROKEN BOW     CLOUDY    60  60 100 SW5       30.03S FOG
O`NEILL        FOG       57  56  96 CALM      30.02R VSB 1/4
ORD            CLOUDY    63  60  90 S6        30.00F
THEDFORD       MOCLDY    53  52  99 CALM      30.04F FOG
$$

NEZ041-046>049-061>064-073>077-083>087-271200-
SOUTH CENTRAL NEBRASKA

CITY           SKY/WX    TMP DP  RH WIND       PRES   REMARKS
GRAND ISLAND   FOG       59  59 100 SW3       30.03R VSB 1/4
AURORA         FOG       61  61 100 CALM      30.02S VSB 1/4
HASTINGS       FOG       60  59  96 CALM      30.04R VSB 1/4
HEBRON         CLOUDY    67  66  98 CALM      30.01F
HOLDREGE       CLEAR     53  52  95 CALM      30.05R
KEARNEY *      CLEAR     57  54  88 CALM      30.04R
YORK           CLOUDY    64  64 100 CALM      30.02S FOG
$$

NEZ011>018-030>034-042>045-271200-
NORTHEAST NEBRASKA

CITY           SKY/WX    TMP DP  RH WIND       PRES   REMARKS
NORFOLK        FOG       63  62  97 CALM      30.01S VSB 1
ALBION         CLOUDY    63  61  94 CALM      30.02F FOG
BLAIR          FOG       65  65  97 CALM      30.00S VSB 1/4
FREMONT        FOG       65  65  99 CALM      30.01R VSB 3/4
TEKAMAH        CLOUDY    65  64  97 CALM      30.00R FOG
WAYNE          FOG       64  63  98 CALM      30.01F VSB 3/4
$$

NEZ050>053-065>068-078-088>093-271200-
SOUTHEAST NEBRASKA

CITY           SKY/WX    TMP DP  RH WIND       PRES   REMARKS
LINCOLN        CLOUDY    68  66  93 NW5       30.00S
OMAHA EPPLEY   CLOUDY    66  64  93 E3        29.99F FOG
BEATRICE       CLOUDY    67  66  98 NW5       30.00R
FALLS CITY     HVY RAIN  68  68 100 S13       29.99R FOG
NEBRASKA CITY  DRIZZLE   67  67 100 CALM      29.99S
PLATTSMOUTH    FOG       67  67 100 S3        30.00R VSB 1
$$

NEZ044-045-051>053-067-271200-
OMAHA AREA

CITY           SKY/WX    TMP DP  RH WIND       PRES   REMARKS
OMAHA EPPLEY   CLOUDY    66  64  93 E3        29.99F FOG
BLAIR          FOG       65  65  97 CALM      30.00S VSB 1/4
FREMONT        FOG       65  65  99 CALM      30.01R VSB 3/4
MILLARD        CLOUDY    67  65  96 CALM      29.99F FOG
OFFUTT AFB     CLOUDY    66  66 100 E3        29.99R FOG
PLATTSMOUTH    FOG       67  67 100 S3        30.00R VSB 1
WAHOO          FOG       66  65  96 CALM      30.00S VSB 1/2
$$




USA.gov is the U.S. government's official web portal to all federal, state and local government web resources and services.